Погода в Стерлитамаке

Хотите узнать прогноз погоды в Стерлитамаке? Тогда Вам сюда: Погода в Стерлитамаке

Поиск расширенной информации на нашем сайте:

Полезная информация:

Новости сайта



02.01.2020
Опубликован Долгосрочный прогноз погоды по городам России и ближнего зарубежья на январь 2020 года.
Карты: Прогноз на январь и февраль 2020 года, Сравнение прогнозируемой аномалии приземной температуры воздуха на январь 2020 года по разным моделям.




Погода в Стерлитамаке - сегодня

Время (UTC), дата Ветер
(°,м/с) 
Видим.   Явления Облачность Т
(°С)
Тd
(°С)
f(%) Тe
(°С)
Pmin
(гПа)
dP
(гПа)
Po
(мм)
O2
(г/м3)
Тmin Tmax R s Состояние
почвы
06 05.04.20 190 (Ю) 4000 м  дымка{туман}  9/0 средняя 
[Ac trans]
+5.1 +2.6 84 +4  1014.4  -1.2  748  296           
09 05.04.20 230 (ЮЗ) 20000 м    9/0 средняя 
[Ac trans]
+11 +0.1 47 +11  1013  -1  747  289           
12 05.04.20 300 (СЗ) 10 км    9/4 600 м средняя 
[Sc|Ac trans]
+10.3 -2.5 41 +10  1012.7  -0.4  747  290           
15 05.04.20 340 (С) 10 км    10/10 600 м кучево-дожд. 
[Cb cap]
+8.6 -1.2 50 +9  1012  -0.8  746  292    +11.5       
18 05.04.20 340 (С) 10 км  в посл. час ливневой дождь  10/10 600 м кучево-дожд. 
[Cb cap]
+4.5 +0.6 76 +4  1013.1  0.9  747  296           
21 05.04.20 тихо ()   10 км  ливневой снег  10/10 600 м кучево-дожд. 
[Cb cap]
+0.4 -1.5 87 1012.4  -1  746  300           
00 06.04.20 310 (СЗ) 10 км  слаб. ливневой дождь  10/10 600 м кучево-дожд. 
[Cb cap]
+1 -0.7 88 1011.1  -1.2  746  299           
03 06.04.20 310 (СЗ) 10 км  {ливн. осадки}  10/10 600 м кучево-дожд. 
[Cb cap]
+0.9 -1.5 84 1011.5  0.4  746  300  +0.4    равномерный
мокрый или
старый снег
100% 
06 06.04.20 320 (СЗ) 10 км  {ливн. осадки}  9/3 600 м кучево-дожд., средняя 
[Cb cap|Ac trans]
+2.4 -5.8 55 1012.1  0.7  746  299           
09 06.04.20 010 (С) 10 км    8/8 600 м кучево-дожд. 
[Cb cap]
+5.6 -7 40 +4  1011.4  -0.6  746  295           
12 06.04.20 360 (С) 4{12}  10 км  {ливн. осадки}  3/3 600 м кучево-дожд., верхняя 
[Cb cap|Ci fib]
+4.4 -7.1 43 +3  1012  0.6  746  297           
15 06.04.20 040 (СВ) 10 км    ясно 
+2.7 -6.7 50 +2  1011.8  -0.3  746  298    +6.3  0.0     
18 06.04.20 350 (С) 10 км    ясно 
+0.6 -7.1 56 1011.8  0.1  746  301           
21 06.04.20 360 (С) 10 км    10/0 верхняя 
[Cs]
+0 -9.7 48 -1  1011.8  0.1  746  301           
00 07.04.20 360 (С) 10 км    9/0 верхняя 
[Cs]
+0.3 -10.3 45 -2  1012.1  0.1  746  301           
03 07.04.20 360 (С) 20000 м    9/0 верхняя 
[Ci]
-0.5 -11.3 44 -3  1014.4  2.2  748  303  -0.9      мокрый или
старый снег
10-40% 
06 07.04.20 350 (С) 5-10{14}  20000 м    ясно 
+2 -10 41 -1  1015.6  1.3  749  301           
09 07.04.20 360 (С) 7-14{16}  20000 м    1/1 600 м 
[Sc]
+3.8 -15.1 24 +1  1016.6  750  299           
12 07.04.20 330 (СЗ) 5-11{15}  10 км    9/9 600 м кучево-дожд. 
[Cb cap]
+2.6 -13.9 28 1017.4  0.7  750  301           
15 07.04.20 320 (СЗ) 7-16{16}  10 км  в посл. час ливневой снег  9/9 600 м кучево-дожд. 
[Cb cap]
+1.7 -12.2 35 -2  1018.3  0.9  751  302    +4.5  0.0     
18 07.04.20 310 (СЗ) 3{16}  10 км  {ливн. осадки}  3/1 600 м кучево-дожд., средняя 
[Cb cap|Ac trans]
-0.2 -11.4 43 -2  1018.9  0.4  751  304           
21 07.04.20 300 (СЗ) 10 км    6/6 600 м кучево-дожд. 
[Cb cap]
-0.8 -10.8 47 -3  1018.2  -0.7  751  304           
00 08.04.20 300 (СЗ) 10 км    8/0 средняя 
[Ac trans]
-1.9 -10.5 52 -1  1017.4  -0.8  750  305           
03 08.04.20 350 (С) 10 км    9/3 600 м кучево-дожд., средняя, верхняя 
[Cb cap|Ac trans|Ci fib]
-1.9 -11 50 -3  1017.3  -0.1  750  305  -2.8        сухая 
06 08.04.20 350 (С) 10 км  в посл. час ливневой снег  9/9 600 м кучево-дожд. 
[Cb cap]
+1.3 -12.3 36 -1  1016.6  -0.5  750  302           
Время (UTC), дата Ветер
(°,м/с) 
Видим.   Явления Облачность Т
(°С)
Тd
(°С)
f(%) Тe
(°С)
Pmin
(гПа)
dP
(гПа)
Po
(мм)
O2
(г/м3)
Тmin Tmax R s Состояние
почвы

Для получения пояснительной информации подведите курсор к названию столбца.

ПОГОДА в Стерлитамаке - архив

Всё, что Вы хотите узнать о погоде в Стерлитамаке - удобно и подробно!

Выберите нужную дату (начиная с 1 января 2019* года) и нажмите кнопку "Найти".
Будут отображены архивные сводки погоды по пункту Стерлитамак, начиная с указанной даты.


Отображать данные в формате CSV (для использования в таблицах Excel)


Внимание! Наш архив погоды предназначен исключительно для личного некоммерческого использования в познавательных целях. Если Вам необходимы официальные справки о состоянии погоды (для производственных, юридических, коммерческих и т.п. целей), обращайтесь в органы Росгидромета.

*Примечание: данная дата относится к архиву по метеостанциям СССР (Россия, СНГ, Балтия).
Архив по метеостанциям Зарубежной Европы и Азии (кроме Китая) хранится 10 дней, по другим регионам земного шара (Китай, Африка, Америка, Австралия, Океания) - 1 день.

Стерлитамак - район местоположения метеостанции


Название, широта, долгота, высота метеостанции:
Стерлитамак 53.6°ш. 56°д. 137 м над ур. моря [Российская Федерация]

Дополнительная информация

В oтличие oт бoльшинства пoгoдных сайтoв мы публикуем пoдрoбную метеoинфoрмацию в детальнoм прoфессиoнальнoм фoрмате.

Характеристики температуры и влажнoсти вoздуха измеряются на высoте 2 м в тени вдали oт зданий и деревьев.
Скoрoсть ветра измеряется на высoте 10 м (на урoвне рoста челoвека скoрoсть ветра ниже в 1.5-2 раза). Если метеoстанция нахoдится в гoрoде или в лесу, тo скoрoсть ветра занижена на 2-4 м/с пo сравнению с oткрытым местoм. Скoрoсть ветра над акватoриями крупных рек и oзёр, а также на вершинах хoлмoв на 2-5 м/с выше, чем в oбычных услoвиях.
Атмoсфернoе давление в разных тoчках местнoсти мoжет значительнo oтличаться oт давления на метеoстанции, в зависимoсти oт услoвий рельефа (при пoдъёме на 10 м давление пoнижается примернo на 1 мм рт.ст.).